Luverne, MN

8:12 AM CST on December 18, 2017 (GMT -0600)
Luverne

Weather History for KLYV - September, 2012

Change the Weather History Date:

Wednesday, September 5, 2012

  Actual Average (KPQN) Record (KPQN)
Temperature  
Mean Temperature 65 °F -  
Max Temperature 77 °F 75 °F 89 °F (2003)
Min Temperature 53 °F 54 °F 44 °F (2014)
Growing Degree Days 15 (Base 50)    
Moisture  
Dew Point 48 °F    
Average Humidity 57    
Maximum Humidity 88    
Minimum Humidity 26    
Precipitation  
Precipitation 0.00 in - - ()
Sea Level Pressure  
Sea Level Pressure 29.90 in    
Wind  
Wind Speed 6 mph (NNW)    
Max Wind Speed 14 mph    
Max Gust Speed 21 mph    
Visibility 10 miles    
Events      
Averages and records for this station are not official NWS values.
T = Trace of Precipitation, MM = Missing Value Source: NWS Daily Summary

Daily Weather History Graph

Daily Weather History Graph

Search for Another Location

Airport or City:

Trip Planner

Search our weather history database for the weather conditions in past years. The results will help you decide how hot, cold, wet, or windy it might be!

Date:

Astronomy

Sep. 05, 2012 Rise Set
Actual Time 6:53 AM CDT 7:52 PM CDT
Civil Twilight 6:24 AM CDT 8:21 PM CDT
Nautical Twilight 5:49 AM CDT 8:56 PM CDT
Astronomical Twilight 5:12 AM CDT 9:32 PM CDT
Moon 10:10 PM CDT (9/5) 12:10 PM CDT (9/5)
Length of Visible Light 13h 57m
Length of Day
12h 58m
Waning Gibbous, 76% of the Moon is Illuminated
Sep 5
Waning Gibbous
Sep 8
Last Quarter
Sep 15
New
Sep 22
First Quarter
Sep 29
Full

Hourly Weather History & Observations

Time (CDT) Temp. Dew Point Humidity Pressure Visibility Wind Dir Wind Speed Gust Speed Precip Events Conditions
12:15 AM 68.0 °F 51.8 °F 56% 29.79 in 10.0 mi ENE 8.1 mph 18.4 mph N/A   Clear
12:34 AM 66.2 °F 51.8 °F 60% 29.79 in 10.0 mi East 8.1 mph - N/A   Clear
12:54 AM 66.2 °F 50.0 °F 56% 29.80 in 10.0 mi East 8.1 mph - N/A   Clear
1:14 AM 68.0 °F 50.0 °F 52% 29.80 in 10.0 mi East 10.4 mph 17.3 mph N/A   Clear
1:34 AM 66.2 °F 51.8 °F 60% 29.81 in 10.0 mi ESE 8.1 mph - N/A   Clear
1:54 AM 64.4 °F 51.8 °F 64% 29.79 in 10.0 mi SE 10.4 mph - N/A   Clear
2:14 AM 64.4 °F 51.8 °F 64% 29.78 in 10.0 mi ESE 5.8 mph - N/A   Clear
2:34 AM 62.6 °F 50.0 °F 63% 29.78 in 10.0 mi ESE 5.8 mph - N/A   Clear
2:54 AM 62.6 °F 51.8 °F 68% 29.78 in 10.0 mi Calm Calm - N/A   Clear
3:14 AM 62.6 °F 51.8 °F 68% 29.79 in 10.0 mi Calm Calm - N/A   Clear
3:34 AM 60.8 °F 51.8 °F 72% 29.79 in 10.0 mi Calm Calm - N/A   Clear
3:54 AM 59.0 °F 51.8 °F 77% 29.80 in 10.0 mi Calm Calm - N/A   Clear
4:14 AM 57.2 °F 51.8 °F 82% 29.81 in 10.0 mi Calm Calm - N/A   Clear
4:34 AM 57.2 °F 51.8 °F 82% 29.82 in 10.0 mi NNW 3.5 mph - N/A   Clear
4:54 AM 57.2 °F 51.8 °F 82% 29.84 in 10.0 mi NNW 3.5 mph - N/A   Clear
5:14 AM 57.2 °F 51.8 °F 82% 29.85 in 10.0 mi NNW 4.6 mph - N/A   Clear
5:34 AM 55.4 °F 51.8 °F 88% 29.85 in 10.0 mi NNW 4.6 mph - N/A   Clear
5:54 AM 55.4 °F 51.8 °F 88% 29.85 in 10.0 mi NNW 3.5 mph - N/A   Clear
6:14 AM 55.4 °F 51.8 °F 88% 29.87 in 10.0 mi NNW 8.1 mph - N/A   Clear
6:34 AM 55.4 °F 51.8 °F 88% 29.88 in 10.0 mi NNW 4.6 mph - N/A   Clear
6:54 AM 55.4 °F 51.8 °F 88% 29.89 in 10.0 mi North 3.5 mph - N/A   Clear
7:14 AM 55.4 °F 51.8 °F 88% 29.90 in 10.0 mi Calm Calm - N/A   Clear
7:34 AM 59.0 °F 51.8 °F 77% 29.89 in 10.0 mi NE 3.5 mph - N/A   Clear
7:54 AM 59.0 °F 51.8 °F 77% 29.90 in 10.0 mi North 3.5 mph - N/A   Clear
8:14 AM 60.8 °F 51.8 °F 72% 29.90 in 10.0 mi Calm Calm - N/A   Clear
8:34 AM 60.8 °F 51.8 °F 72% 29.90 in 10.0 mi North 3.5 mph - N/A   Clear
8:54 AM 62.6 °F 51.8 °F 68% 29.90 in 10.0 mi Calm Calm - N/A   Clear
9:14 AM 64.4 °F 51.8 °F 64% 29.90 in 10.0 mi North 6.9 mph - N/A   Clear
9:34 AM 68.0 °F 51.8 °F 56% 29.90 in 10.0 mi NNE 4.6 mph - N/A   Clear
9:54 AM 68.0 °F 51.8 °F 56% 29.91 in 10.0 mi North 3.5 mph - N/A   Clear
10:14 AM 69.8 °F 51.8 °F 53% 29.92 in 10.0 mi North 3.5 mph - N/A   Clear
10:34 AM 71.6 °F 50.0 °F 46% 29.92 in 10.0 mi North 10.4 mph - N/A   Clear
10:54 AM 73.4 °F 50.0 °F 44% 29.93 in 10.0 mi North 12.7 mph 16.1 mph N/A   Clear
11:14 AM 73.4 °F 50.0 °F 44% 29.93 in 10.0 mi North 8.1 mph - N/A   Clear
11:34 AM 73.4 °F 51.8 °F 47% 29.93 in 10.0 mi North 11.5 mph 17.3 mph N/A   Clear
11:54 AM 73.4 °F 50.0 °F 44% 29.93 in 10.0 mi North 5.8 mph - N/A   Clear
12:15 PM 73.4 °F 51.8 °F 47% 29.93 in 10.0 mi NNW 12.7 mph 16.1 mph N/A   Clear
12:34 PM 73.4 °F 51.8 °F 47% 29.94 in 10.0 mi NW 9.2 mph 16.1 mph N/A   Clear
12:55 PM 75.2 °F 50.0 °F 41% 29.93 in 10.0 mi NNW 12.7 mph 17.3 mph N/A   Clear
1:14 PM 77.0 °F 50.0 °F 39% 29.93 in 10.0 mi NW 12.7 mph 18.4 mph N/A   Clear
1:34 PM 77.0 °F 50.0 °F 39% 29.93 in 10.0 mi NNW 10.4 mph 17.3 mph N/A   Clear
1:55 PM 77.0 °F 46.4 °F 34% 29.93 in 10.0 mi NW 10.4 mph 17.3 mph N/A   Clear
2:14 PM 77.0 °F 44.6 °F 32% 29.93 in 10.0 mi NNW 9.2 mph - N/A   Clear
2:34 PM 77.0 °F 44.6 °F 32% 29.93 in 10.0 mi NW 12.7 mph 20.7 mph N/A   Clear
2:55 PM 77.0 °F 42.8 °F 29% 29.93 in 10.0 mi NNW 11.5 mph 20.7 mph N/A   Clear
3:14 PM 77.0 °F 39.2 °F 26% 29.93 in 10.0 mi NNW 12.7 mph 19.6 mph N/A   Clear
3:34 PM 77.0 °F 41.0 °F 28% 29.93 in 10.0 mi NW 8.1 mph 18.4 mph N/A   Clear
3:55 PM 77.0 °F 41.0 °F 28% 29.93 in 10.0 mi WNW 13.8 mph 17.3 mph N/A   Clear
4:14 PM 77.0 °F 39.2 °F 26% 29.93 in 10.0 mi NNW 10.4 mph 16.1 mph N/A   Clear
4:34 PM 77.0 °F 39.2 °F 26% 29.93 in 10.0 mi NNW 13.8 mph 18.4 mph N/A   Clear
4:55 PM 77.0 °F 41.0 °F 28% 29.93 in 10.0 mi NNW 11.5 mph 18.4 mph N/A   Clear
5:14 PM 75.2 °F 39.2 °F 27% 29.93 in 10.0 mi NNW 10.4 mph 18.4 mph N/A   Clear
5:34 PM 75.2 °F 39.2 °F 27% 29.93 in 10.0 mi NNW 9.2 mph - N/A   Clear
5:55 PM 73.4 °F 39.2 °F 29% 29.93 in 10.0 mi NW 11.5 mph - N/A   Clear
6:14 PM 73.4 °F 41.0 °F 31% 29.93 in 10.0 mi WNW 8.1 mph - N/A   Clear
6:34 PM 73.4 °F 41.0 °F 31% 29.94 in 10.0 mi WNW 8.1 mph - N/A   Clear
6:55 PM 73.4 °F 41.0 °F 31% 29.94 in 10.0 mi NW 5.8 mph - N/A   Clear
7:14 PM 71.6 °F 42.8 °F 35% 29.94 in 10.0 mi WNW 3.5 mph - N/A   Clear
7:34 PM 68.0 °F 46.4 °F 46% 29.95 in 10.0 mi WNW 4.6 mph - N/A   Clear
7:55 PM 64.4 °F 46.4 °F 52% 29.95 in 10.0 mi NW 5.8 mph - N/A   Clear
8:14 PM 62.6 °F 46.4 °F 55% 29.95 in 10.0 mi WNW 5.8 mph - N/A   Clear
8:34 PM 62.6 °F 46.4 °F 55% 29.96 in 10.0 mi NW 5.8 mph - N/A   Clear
8:55 PM 59.0 °F 50.0 °F 72% 29.97 in 10.0 mi Calm Calm - N/A   Clear
9:14 PM 59.0 °F 50.0 °F 72% 29.97 in 10.0 mi Calm Calm - N/A   Clear
9:34 PM 55.4 °F 50.0 °F 82% 29.97 in 10.0 mi Calm Calm - N/A   Clear
9:55 PM 55.4 °F 48.2 °F 77% 29.97 in 10.0 mi Calm Calm - N/A   Clear
10:14 PM 55.4 °F 46.4 °F 72% 29.97 in 10.0 mi Calm Calm - N/A   Clear
10:34 PM 53.6 °F 48.2 °F 82% 29.97 in 10.0 mi Calm Calm - N/A   Clear
10:55 PM 55.4 °F 48.2 °F 77% 29.97 in 10.0 mi Calm Calm - N/A   Clear
11:14 PM 55.4 °F 48.2 °F 77% 29.98 in 10.0 mi Calm Calm - N/A   Clear
11:34 PM 53.6 °F 46.4 °F 77% 29.98 in 10.0 mi Calm Calm - N/A   Clear
11:53 PM 53.6 °F 50.0 °F 88% 29.98 in 10.0 mi Calm Calm - N/A   Clear